| time (UTC) | temp F | wind direction | speed MPH | gust MPH | rain 1hr in | rain 24hr in | rain mn in | humidity % | barometer mb |
| 20260505024540 | 71 | 338 | 9.0 | 15.0 | 0.00 | 0.00 | 0.00 | 43 | 1002.3 |
| 20260505023034 | 71 | 345 | 6.0 | 13.0 | 0.00 | 0.00 | 0.00 | 47 | 1002.0 |
| 20260505021536 | 71 | 345 | 3.0 | 9.0 | 0.00 | 0.00 | 0.00 | 58 | 1001.7 |
| 20260505020031 | 73 | 229 | 0.0 | 0.0 | 0.00 | 0.00 | 0.00 | 55 | 1001.0 |
| 20260505014537 | 73 | 161 | 0.0 | 2.0 | 0.00 | 0.00 | 0.00 | 55 | 1000.9 |
| 20260505013030 | 73 | 161 | 0.0 | 1.0 | 0.00 | 0.00 | 0.00 | 55 | 1000.7 |
| 20260505011527 | 74 | 161 | 0.0 | 0.0 | 0.00 | 0.00 | 0.00 | 54 | 1000.6 |
| 20260505010027 | 75 | 161 | 1.0 | 3.0 | 0.00 | 0.00 | 0.00 | 52 | 1000.1 |
| 20260505004527 | 77 | 159 | 1.0 | 4.0 | 0.00 | 0.00 | 0.00 | 50 | 1000.1 |
| 20260505003026 | 77 | 169 | 1.0 | 4.0 | 0.00 | 0.00 | 0.00 | 47 | 1000.3 |
| 20260505001533 | 78 | 197 | 3.0 | 7.0 | 0.00 | 0.00 | 0.00 | 45 | 1000.4 |
| 20260505000032 | 79 | 157 | 4.0 | 9.0 | 0.00 | 0.00 | 0.00 | 42 | 1000.4 |
| 20260504234524 | 79 | 170 | 5.0 | 9.0 | 0.00 | 0.00 | 0.00 | 43 | 1000.4 |
| 20260504233025 | 79 | 195 | 7.0 | 10.0 | 0.00 | 0.00 | 0.00 | 44 | 1000.4 |
| 20260504231529 | 79 | 188 | 7.0 | 11.0 | 0.00 | 0.00 | 0.00 | 44 | 1000.4 |
| 20260504230022 | 79 | 194 | 7.0 | 16.0 | 0.00 | 0.00 | 0.00 | 43 | 1000.3 |
| 20260504224526 | 80 | 184 | 7.0 | 10.0 | 0.00 | 0.00 | 0.00 | 41 | 1000.2 |
| 20260504223021 | 81 | 202 | 4.0 | 7.0 | 0.00 | 0.00 | 0.00 | 37 | 1000.1 |
| 20260504221521 | 83 | 183 | 2.0 | 6.0 | 0.00 | 0.00 | 0.00 | 34 | 1000.2 |
| 20260504220020 | 83 | 189 | 4.0 | 10.0 | 0.00 | 0.00 | 0.00 | 32 | 1000.2 |
| 20260504214516 | 82 | 213 | 4.0 | 12.0 | 0.00 | 0.00 | 0.00 | 33 | 1000.2 |
| 20260504213015 | 82 | 195 | 5.0 | 10.0 | 0.00 | 0.00 | 0.00 | 35 | 1000.3 |
| 20260504211514 | 82 | 201 | 2.0 | 8.0 | 0.00 | 0.00 | 0.00 | 35 | 1000.4 |
| 20260504210012 | 81 | 147 | 4.0 | 7.0 | 0.00 | 0.00 | 0.00 | 37 | 1000.6 |
| 20260504204510 | 81 | 190 | 5.0 | 8.0 | 0.00 | 0.00 | 0.00 | 36 | 1000.8 |
| 20260504203019 | 81 | 231 | 3.0 | 8.0 | 0.00 | 0.00 | 0.00 | 36 | 1000.9 |
| 20260504201507 | 81 | 184 | 3.0 | 9.0 | 0.00 | 0.00 | 0.00 | 38 | 1001.1 |
| 20260504200007 | 82 | 210 | 2.0 | 10.0 | 0.00 | 0.00 | 0.00 | 36 | 1001.2 |
| 20260504194508 | 82 | 300 | 1.0 | 9.0 | 0.00 | 0.00 | 0.00 | 34 | 1001.3 |
| 20260504193006 | 82 | 116 | 0.0 | 4.0 | 0.00 | 0.00 | 0.00 | 35 | 1001.3 |
| 20260504191501 | 82 | 167 | 5.0 | 10.0 | 0.00 | 0.00 | 0.00 | 35 | 1001.4 |
| 20260504190128 | 83 | 252 | 1.0 | 8.0 | 0.00 | 0.00 | 0.00 | 34 | 1001.5 |
| 20260504184600 | 81 | 116 | 4.0 | 8.0 | 0.00 | 0.00 | 0.00 | 38 | 1001.4 |
| 20260504183056 | 82 | 206 | 4.0 | 9.0 | 0.00 | 0.00 | 0.00 | 38 | 1001.5 |
| 20260504181558 | 82 | 240 | 1.0 | 4.0 | 0.00 | 0.00 | 0.00 | 40 | 1001.7 |
| 20260504180137 | 80 | 247 | 3.0 | 7.0 | 0.00 | 0.00 | 0.00 | 37 | 1002.0 |
| 20260504174549 | 79 | 323 | 0.0 | 8.0 | 0.00 | 0.00 | 0.00 | 39 | 1001.8 |
| 20260504173056 | 78 | 209 | 2.0 | 7.0 | 0.00 | 0.00 | 0.00 | 41 | 1001.8 |
| 20260504171542 | 77 | 213 | 5.0 | 8.0 | 0.00 | 0.00 | 0.00 | 44 | 1002.0 |
| 20260504081554 | 61 | 213 | 0.0 | 0.0 | 0.00 | 0.00 | 0.00 | 59 | 1004.0 |
| 20260504050024 | 64 | 57 | 0.0 | 1.0 | 0.00 | 0.00 | 0.00 | 58 | 1005.8 |
| 20260504044522 | 66 | 57 | 0.0 | 4.0 | 0.00 | 0.00 | 0.00 | 55 | 1006.0 |
| 20260504043022 | 65 | 95 | 1.0 | 5.0 | 0.00 | 0.00 | 0.00 | 55 | 1006.0 |
| 20260504041520 | 63 | 205 | 2.0 | 5.0 | 0.00 | 0.00 | 0.00 | 61 | 1006.5 |
| 20260504040018 | 64 | 36 | 0.0 | 2.0 | 0.00 | 0.00 | 0.00 | 61 | 1006.4 |
| 20260504034531 | 64 | 19 | 0.0 | 2.0 | 0.00 | 0.00 | 0.00 | 60 | 1007.0 |
| 20260504033023 | 66 | 350 | 1.0 | 3.0 | 0.00 | 0.00 | 0.00 | 60 | 1007.3 |
| 20260504031517 | 66 | 350 | 1.0 | 3.0 | 0.00 | 0.00 | 0.00 | 60 | 1007.5 |
| 20260504030018 | 65 | 14 | 0.0 | 0.0 | 0.00 | 0.00 | 0.00 | 61 | 1007.1 |